Other Public Products
Issued by NWS Grand Forks, ND

Home | Current Version | Previous Version | Graphics & Text | Print | Product List | Glossary On
Versions: 1 2 3 4 5 6 7 8 9 10 11 12 13 14 15 16 17 18 19 20 21 22 23 24 25 26 27 28 29 30 31 32 33 34 35 36 37 38 39 40 41 42 43 44 45 46 47 48 49 50
000
FPUS83 KFGF 301831
OPUFGF
PRAIRIE TO PINES WEATHER ROUNDUP
NATIONAL WEATHER SERVICE EASTERN NORTH DAKOTA/GRAND FORKS ND
100 PM CDT SAT APR 30 2016

 **SATELLITE DATA USED TO AUGMENT SKY COVER AT AUTOMATED STATIONS**
 *****  WEATHER ACROSS EASTERN NORTH DAKOTA  *****

CITY           SKY/WX    TMP DP  RH WIND       PRES   REMARKS
GRAND FORKS    MOSUNNY   59  29  31 NE24G33   30.23F
6HR MIN TEMP:  38; 6HR MAX TEMP:  59;

GRAND FORKS AF SUNNY     59  28  30 E16G23    30.24F
GRAND CITY NWS NOT AVBL
BUXTON           N/A     60  30  32 NE22G33     N/A
DEVILS LAKE    SUNNY     56  28  34 NE20G28   30.25F
6HR MIN TEMP:  38; 6HR MAX TEMP:  56;

FARGO          CLOUDY    61  28  28 NE23G32   30.16F
6HR MIN TEMP:  42; 6HR MAX TEMP:  61;

WAHPETON ARPT  PTCLDY    59  30  33 E16G24    30.13F
$$

 *****  WEATHER ACROSS CENTRAL AND WESTERN NORTH DAKOTA  *****

CITY           SKY/WX    TMP DP  RH WIND       PRES   REMARKS
JAMESTOWN      SUNNY     58  29  33 E23G32    30.18F
6HR MIN TEMP:  38; 6HR MAX TEMP:  58;

BISMARCK       PTSUNNY   57  31  37 E23G35    30.21S
6HR MIN TEMP:  40; 6HR MAX TEMP:  57;

MINOT          MOSUNNY   63  27  25 NE14G29   30.25F
6HR MIN TEMP:  35; 6HR MAX TEMP:  64;

MINOT AFB      MOSUNNY   59  30  33 E18G24    30.24F
6HR MIN TEMP:  33; 6HR MAX TEMP:  59;

GARRISON         N/A     56  29  35 NE15G24   30.23F
6HR MIN TEMP:  38; 6HR MAX TEMP:  60;

WILLISTON      SUNNY     60  28  29 E14       30.26F
6HR MIN TEMP:  37; 6HR MAX TEMP:  60;

DICKINSON      MOSUNNY   53  31  42 NE18G29   30.18S
6HR MIN TEMP:  32; 6HR MAX TEMP:  55;

HETTINGER      MOSUNNY   55  34  45 E18G30    30.18S
6HR MIN TEMP:  38; 6HR MAX TEMP:  55;

$$

 *****  OTHER OBSERVATIONS NORTHEAST NORTH DAKOTA  *****

CITY           SKY/WX    TMP DP  RH WIND       PRES   REMARKS
WALHALLA       FAIR      59  30  33 E17G23    30.28F
LANGDON        FAIR      57  32  38 NE18G25   30.26F
CAVALIER       FAIR      57  32  38 NE15G23   30.27F
GRAFTON        FAIR      59  32  36 NE21G28   30.27F
CANDO          FAIR      59  25  27 E23G32    30.28F
FORT TOTTEN    NOT AVBL
ROLLA          FAIR      57  27  30 E18G28    30.28F
RUGBY          FAIR      57  30  35 NE22G28   30.25F
 ***** THE ABOVE OBSERVATIONS ARE NON NWS ARE NOT QUALITY
        CONTROLLED AND MAY MIS-REPORT RAIN FOR SNOW...
$$

 *****  OTHER OBSERVATIONS SOUTHEAST NORTH DAKOTA *****

CITY           SKY/WX    TMP DP  RH WIND       PRES   REMARKS
COOPERSTOWN    NOT AVBL
VALLEY CITY    FAIR      57  30  35 NE25G35   30.19F
OAKES            N/A    N/A N/A N/A MISG        N/A
GWINNER        FAIR      57  32  38 NE23G29   30.14F
SHEYENNE NWR     N/A     59  31  35 E17       29.95S
BUFFALO          N/A     59  27  29 NE25G37     N/A
WYNDMERE         N/A     57  32  38 E20         N/A
 ***** THE ABOVE OBSERVATIONS ARE NON NWS ARE NOT QUALITY
       CONTROLLED AND MAY MIS-REPORT RAIN FOR SNOW...
$$

  *****  WEATHER ACROSS NORTHERN MINNESOTA  *****

CITY           SKY/WX    TMP DP  RH WIND       PRES   REMARKS
FLAG ISLAND    SUNNY     52  25  35 NE15G22   30.30F
WARROAD        SUNNY     52  32  46 NE15G22   30.31F
ROSEAU         SUNNY     54  36  50 E21       30.28F
HALLOCK        SUNNY     59  25  27 NE20      30.26F
THF RVR FALLS  SUNNY     55  25  30 NE23G30   30.24F
6HR MIN TEMP:  37; 6HR MAX TEMP:  55;

HALSTAD        NOT AVBL
FOSSTON        SUNNY     55  27  33 NE18G28   30.21F
BAUDETTE       SUNNY     55  25  31 NE17G26   30.28F
6HR MIN TEMP:  35; 6HR MAX TEMP:  55;

WASKISH        SUNNY     55  28  35 NE14G21   30.23F
CROOKSTON      SUNNY     59  27  29 E17G33    30.22F
$$
  *****  WEATHER ACROSS CENTRAL AND WEST MINNESOTA  *****

CITY           SKY/WX    TMP DP  RH WIND       PRES   REMARKS
BEMIDJI        SUNNY     55  27  33 E15       30.19F
PARK RAPIDS    CLOUDY    55  27  34 NE17G28   30.17S
6HR MIN TEMP:  41; 6HR MAX TEMP:  55;

WADENA         MOSUNNY   55  30  38 E17G24    30.13F
DETROIT LAKES  PTSUNNY   55  27  33 E18G26    30.16F
MOORHEAD       CLOUDY    61  28  29 NE21      30.16F
FERGUS FALLS   CLOUDY    57  32  38 E14G23    30.12F
ELBOW LAKE     FAIR      55  34  46 NE17      30.12F
MORRIS MN      CLOUDY    54  37  54 E23       30.09F
STAPLES        PTSUNNY   54  28  37 E12G20    30.14F
WHEATON        CLOUDY    59  37  44 E22G31    30.12F
$$
  *****  WEATHER ELSEWHERE ACROSS MINNESOTA  *****

CITY           SKY/WX    TMP DP  RH WIND       PRES   REMARKS
DULUTH         SUNNY     49  29  46 E18G28    30.22F
6HR MIN TEMP:  38; 6HR MAX TEMP:  49;

INTRNTL FALLS  SUNNY     52  27  38 NE12G23   30.27F
6HR MIN TEMP:  37; 6HR MAX TEMP:  53;

ELY            SUNNY     52  25  35 NE13      30.23F
CLOQUET        SUNNY     48  23  37 E22G32    30.21R
BRAINERD       PTSUNNY   56  32  40 NE16G23   30.16R
6HR MIN TEMP:  38; 6HR MAX TEMP:  56;

HIBBING        PTSUNNY   52  27  38 NE15      30.20F
6HR MIN TEMP:  35; 6HR MAX TEMP:  52;

ALEXANDRIA     CLOUDY    53  33  46 E21G28    30.12S
6HR MIN TEMP:  39; 6HR MAX TEMP:  54;

SAINT CLOUD    CLOUDY    55  32  41 E15G26    30.10F
6HR MIN TEMP:  38; 6HR MAX TEMP:  56;

MINNEAPOLIS    CLOUDY    55  32  41 E16G28    30.06F
6HR MIN TEMP:  43; 6HR MAX TEMP:  56;

$$

  *****  WEATHER ACROSS SOUTH DAKOTA  *****

CITY           SKY/WX    TMP DP  RH WIND       PRES   REMARKS
SIOUX FALLS    LGT RAIN  43  40  89 NE25G33   29.91F FOG
6HR MIN TEMP:  42; 6HR MAX TEMP:  45; 6HR PCP:  0.42;

BROOKINGS      CLOUDY    45  36  70 NE23G32   29.97F
WATERTOWN      CLOUDY    50  36  58 E24G31    30.04F
6HR MIN TEMP:  39; 6HR MAX TEMP:  50;

HURON          CLOUDY    50  38  63 NE23G31   30.01F
6HR MIN TEMP:  41; 6HR MAX TEMP:  51;

SISSETON         N/A     56  34  43 E20G29    30.09F
ABERDEEN       PTSUNNY   55  35  47 NE20G31   30.10F
6HR MIN TEMP:  42; 6HR MAX TEMP:  55;

MITCHELL       LGT RAIN  44  39  82 NE18G26   29.96F
PIERRE         CLOUDY    53  35  50 NE25G38   30.02F
6HR MIN TEMP:  40; 6HR MAX TEMP:  53;

MOBRIDGE       PTSUNNY   58  34  40 NE24G35   30.10F
RAPID CITY     CLOUDY    44  39  82 NE13      30.09S
6HR MIN TEMP:  39; 6HR MAX TEMP:  45; 6HR PCP:  0.01;

$$

  *****  SOME WEATHER IN NEARBY STATES *****

CITY           SKY/WX    TMP DP  RH WIND       PRES   REMARKS
GLASGOW MT     MOSUNNY   58  32  37 E15G23    30.25F
6HR MIN TEMP:  43; 6HR MAX TEMP:  59;

GREAT FALLS MT CLOUDY    51  37  58 VRB3      30.21R
6HR MIN TEMP:  36; 6HR MAX TEMP:  51;

CHEYENNE WY    LGT SNOW  32  29  88 N14G32    29.98R VSB 3/4 WCI  22
6HR MIN TEMP:  28; 6HR MAX TEMP:  32; 6HR PCP:  0.05;

SCOTTSBLUFF NE LGT RAIN  37  34  89 N21       29.98R
6HR MIN TEMP:  34; 6HR MAX TEMP:  37; 6HR PCP:  0.08;

OMAHA NE       DRIZZLE   49  46  90 E10       29.73S
6HR MIN TEMP:  46; 6HR MAX TEMP:  49; 6HR PCP:  0.42;

DES MOINES IA  LGT RAIN  49  45  86 E13       29.77S
6HR MIN TEMP:  46; 6HR MAX TEMP:  49; 6HR PCP:  0.59;

DAVENPORT IA   RAIN      49  46  90 E21G31    29.82F FOG
6HR MIN TEMP:  45; 6HR MAX TEMP:  49; 6HR PCP:  0.15;

CHICAGO IL     LGT RAIN  45  41  86 E17       29.97F FOG
6HR MIN TEMP:  45; 6HR MAX TEMP:  48; 6HR PCP:  0.10;

EAU CLAIRE WI  CLOUDY    57  33  40 E17G26    30.06F
6HR MIN TEMP:  40; 6HR MAX TEMP:  57;

LA CROSSE WI   CLOUDY    51  35  54 E14G25    30.02F
6HR MIN TEMP:  44; 6HR MAX TEMP:  52;

$$

  *****  SOME NATIONAL WEATHER *****

CITY           SKY/WX    TMP DP  RH WIND       PRES   REMARKS
LA GUARDIA NY  PTSUNNY   62  38  40 VRB6G18   30.19R
6HR MIN TEMP:  49; 6HR MAX TEMP:  62;                              C1F1C2F2C3F3C4F4C5F5C6F6C7F7C8F8C9F9CaFaCbFbCcFcCdFdCe!


USA.gov is the U.S. government's official web portal to all federal, state and local government web resources and services.